Volver al catálogo

ONEWEB-0352

ActivoComunicacionesPO
NORAD 49216·PAYLOAD·🇬🇧 United Kingdom

Lanzado Sep 14, 2021 desde Baikonur Cosmodrome

Loading…

Próximos Pases (próximas 24 horas)

TLE

ActualizadoSource: CelesTrak SupGP

Época: Sep 14, 2026, 20:18 UTC

1 49216C 21083AG  26257.84597222 -.00001331  00000+0 -36486-2 0  2572
2 49216  87.8910 302.3948 0001722  86.2220 309.5545 13.13466456    19

Sigue ONEWEB-0352 en tiempo real con AllMySat

Download on the App Store